Powrót do katalogu

STARLINK-3802

AktywnyŁącznośćVLEO
NORAD 52286·PAYLOAD·🇺🇸 United States

Wystrzelony Apr 21, 2022 z Cape Canaveral Space Force Station

Loading…

Następne Przeloty (najbliższe 24 godziny)

TLE

ŚwieżeSource: CelesTrak SupGP

Epoka: Sep 14, 2026, 21:40 UTC

1 52286C 22041AB  26257.90326389 -.00093857  00000+0 -27758-2 0  2575
2 52286  53.1575 317.5456 0001136  84.4528 184.9535 15.34406122    18

Śledź STARLINK-3802 w czasie rzeczywistym z AllMySat

Download on the App Store